STARLINK-5646, 55461

Orbit data source: Space-Track

STARLINK-5646, 55461 is a payload satellite owned by SpaceX/Seattle (US) in LEO that was launched on Thu, 02 Feb 2023 UTC via an FALCON 9 launch vehicle from the Air Force Eastern Test Range (AFETR). Payload-class satellites include a variety of spacecraft equipped with specific instruments for various scientific and technological missions. These include communications satellites like Starlink; space stations such as the ISS; scientific satellites like the Hubble; Earth observation satellites from companies like Planet Labs, Umbra, and HawkEye 360; GPS; miniature CubeSats for education and research; and military/defense satellites.

Loading next visibility...
Identifier
55461, 2023-015N
Orbit
LEO
Country
Flag of USUS
Related business
Manufacturer
SpaceX/Seattle
Mission
Operational Commercial Communications
Bus & Motor
STARLINK, Unknown motor
Mass
305 kg wet, ~290 kg dry
Launch date (UTC)
2023-02-02 (3 years ago)
Launch vehicle
FALCON 9
Launch site
Air Force Eastern Test Range (AFETR)
Object type
Payload
Rocket body
Debris
Shape & HBR
Box + 1 Pan, 10.1 m
Radar Cross Section
13.562 m², Large (>1 m²)

Expand to show TLE details & history
Last TLE update: 17 hours ago

TLE from 17 hours ago
0 STARLINK-5646
1 55461U 23015N   26035.32908514  .00000457  00000-0  48928-4 0  9991
2 55461  43.0041 147.4397 0001460 272.6578  87.4097 15.02535824165730
Epoch: 2026-02-04T07:53Z
TLE epoch observation values (Epoch: 2026-02-04T07:53:52.956Z)
Latitude
-0.00002°
Longitude
-105.5282°
Altitude
558.813 km
Speed
7.584 km/s
True Right ascension
09h 49m 45s
True Declination
0° 00' 00"
Sunlit
Object was in full shadow at epoch
Visualization orbit readout
Latitude
Unknown
Longitude
Unknown
Altitude
Unknown
Speed
Unknown
Apparent Right ascension
Unknown
Apparent Declination
Unknown
Sunlit
N/A
Visualization observer readout
Local Sidereal Time
03:02:50
Azimuth
Unknown
Elevation
Unknown
Doppler factor
Unknown
Orbital elements
Apogee altitude
562.016 km
Perigee altitude
559.99 km
Semi-major axis
6,939.14 km
Eccentricity
0.00015
Inclination
43.0041°
RAAN
147.4397°
Arg. of periapsis
272.6578°
True anomaly
87.42641°
Mean anomaly
87.4097°
Eccentric anomaly
87.41806°
Mean motion
3.75478 °/min
Orbital period
95.88 mins
BSTAR
0.000048928
Loading maneuver chart data...
Computing Atmospheric mass density...
Loading historical data...
Loading historical data...
Loading historical data...
Loading historical data...
Loading historical data...
Loading historical data...
Loading historical data...

Documentation

Showing up to 5 results
|